Tracking 29591 objects as of 19-Sep-2024
HD Live streaming from Space Station
objects crossing your sky now

STARLINK-4560

Track STARLINK-4560 now!
10-day predictions


NORAD ID: 53691
Int'l Code: 2022-105AV
Perigee: 569.4 km
Apogee: 570.9 km
Inclination: 97.7 °
Period: 95.9 minutes
Semi major axis: 6941 km
RCS: Unknown
Launch date: August 31, 2022
Source: United States (US)
Launch site: AIR FORCE WESTERN TEST RANGE (AFWTR)
Your satellite tracking list
Your tracking list is empty




NASA's NSSDC Master Catalog

Two Line Element Set (TLE):
1 53691U 22105AV  24262.63608618 -.00000703  00000-0 -50186-4 0  9994
2 53691  97.6561 142.1171 0001092 110.9971 249.1370 15.01254236112668
Source of the keplerian elements: AFSPC